Weather Roundup
Issued by NWS Chicago, IL

Home | Current Version | Previous Version | Text Only | Print | Product List | Glossary On
Versions: 1 2 3 4 5 6 7 8 9 10 11 12 13 14 15 16 17 18 19 20 21 22 23 24 25 26 27 28 29 30 31 32 33 34 35 36 37 38 39 40 41 42 43 44 45 46 47 48 49 50
000
NZUS59 KLOT 290903
HRRLOT

CHICAGO AREA WEATHER ROUNDUP
NATIONAL WEATHER SERVICE CHICAGO/ROMEOVILLE IL
400 AM CDT SAT APR 29 2017

NOTE: "FAIR" INDICATES FEW OR NO CLOUDS BELOW 12,000 FEET WITH NO
SIGNIFICANT WEATHER AND/OR OBSTRUCTIONS TO VISIBILITY.

* THESE STATIONS ARE NOT UNDER NWS QUALITY CONTROL. THEY ALSO MAY NOT
  REPORT WEATHER SUCH AS PRECIPITATION OR FOG.

ILZ005-006-012>014-019>023-291000-
NORTHEAST ILLINOIS

CITY           SKY/WX    TMP DP  RH WIND       PRES   REMARKS
OHARE          CLOUDY    46  37  71 NE16G23   30.05F
MIDWAY         CLOUDY    46  40  79 N17G25    30.04R
AURORA         CLOUDY    47  40  76 NE22G30   30.03F
LANSING*       CLOUDY    46  43  90 N13G21    30.02S
JOLIET*        CLOUDY    46  42  85 NE16      30.02R
WAUKEGAN       CLOUDY    42  39  89 N16       30.07S
DUPAGE AIRPORT CLOUDY    45  40  82 NE18G25   30.03F
WHEELING       CLOUDY    44  40  85 NE12G24   30.08S
KANKAKEE*      CLOUDY    47  41  81 NE12G17   30.02R
MORRIS*        MOCLDY    45  41  86 NE7G18    30.01R
NORTHERLY ISL    N/A     45  41  86 MISG        N/A
$$

WIZ051-052-058>065-066-070>072-291000-
SOUTHEAST WISCONSIN

CITY           SKY/WX    TMP DP  RH WIND       PRES   REMARKS
MILWAUKEE      CLOUDY    43  36  76 NE14G24   30.10R
KENOSHA*       CLOUDY    43  35  73 NE16G24   30.08F
RACINE*        CLOUDY    42  35  76 NE17G26   30.11F
WAUKESHA       CLOUDY    41  32  70 NE13G20   30.13F
WEST BEND      CLOUDY    41  36  81 E8        30.14R
$$

INZ001>003-010>013-019-020-291000-
NORTHWEST INDIANA

CITY           SKY/WX    TMP DP  RH WIND       PRES   REMARKS
GARY*          CLOUDY    48  41  77 N20G28    30.03S
MICHIGAN CITY* NOT AVBL
RENSSELAER*    NOT AVBL
VALPARAISO     CLOUDY    49  42  77 N13G23    29.98F
$$

LMZ740>746-291000-
SOUTHERN LAKE MICHIGAN

STATION/POSITION TIME  SKY/WX   TEMP WIND        PRES    VSBY
                                AIR  DIR/SP/G
                 (UTC)          (F)  (DEG/KT/KT) (MB)    (MI)
HARRISON CRIB    0830            45  360/ 18/ 20   N/A
BURNHAM HARBOR   0900            45  350/ 14/ 18   N/A
CALUMET HARBOR   0830            45  350/ 14/ 20 1016.4R
BURNS HARBOR     0840            47   30/ 17/ 21 1016.9R
MICHIGAN CITY    0840            46   20/ 21/ 23   N/A
$$

ABBREVIATIONS USED IN REMARKS
   TC - TEMPERATURE IN CELSIUS
  WCI - WIND CHILL INDEX
   HX - HEAT INDEX
  VSB - VISIBILITY
$$




USA.gov is the U.S. government's official web portal to all federal, state and local government web resources and services.